Buffalo, NY

1:51 PM EDT on March 26, 2017 (GMT -0400)
Buffalo Niagara International

Weather History for KBUF - August, 2012

Change the Weather History Date:

Sunday, August 5, 2012

  Actual Average Record
Temperature  
Mean Temperature 77 °F 71 °F  
Max Temperature 84 °F 80 °F 93 °F (1947)
Min Temperature 69 °F 62 °F 45 °F (1972)
Degree Days  
Heating Degree Days 0 0  
Month to date heating degree days 0 0  
Since 1 June heating degree days 48 73  
Since 1 July heating degree days 0 9  
Cooling Degree Days 12 6  
Month to date cooling degree days 68 30  
Year to date cooling degree days 646 356  
Since 1 June cooling degree days 552 330  
Growing Degree Days 28 (Base 50)    
Moisture  
Dew Point 68 °F    
Average Humidity 65    
Maximum Humidity 76    
Minimum Humidity 54    
Precipitation  
Precipitation 0.81 in 0.10 in 1.34 in (1885)
Month to date precipitation 0.82 0.55  
Year to date precipitation 16.32 22.45  
Snow  
Snow 0.00 in 0.00 in 0.00 in ()
Month to date snowfall 0.0 0.0  
Since 1 June snowfall 0.0 0.0  
Since 1 July snowfall 0.0 0.0  
Snow Depth 0.00 in    
Sea Level Pressure  
Sea Level Pressure 29.91 in    
Wind  
Wind Speed 15 mph (SW)    
Max Wind Speed 36 mph    
Max Gust Speed 45 mph    
Visibility 8 miles    
Events Fog , Rain , Thunderstorm    
T = Trace of Precipitation, MM = Missing Value Source: NWS Daily Summary

Daily Weather History Graph

Daily Weather History Graph

Search for Another Location

Airport or City:

Trip Planner

Search our weather history database for the weather conditions in past years. The results will help you decide how hot, cold, wet, or windy it might be!

Date:

Astronomy

Aug. 05, 2012 Rise Set
Actual Time 6:10 AM EDT 8:30 PM EDT
Civil Twilight 5:38 AM EDT 9:01 PM EDT
Nautical Twilight 4:59 AM EDT 9:40 PM EDT
Astronomical Twilight 4:15 AM EDT 10:24 PM EDT
Moon 9:59 PM EDT (8/5) 10:05 AM EDT (8/5)
Length of Visible Light 15h 22m
Length of Day
14h 19m
Waning Gibbous, 86% of the Moon is Illuminated
Aug 5
Waning Gibbous
Aug 9
Last Quarter
Aug 17
New
Aug 24
First Quarter
Aug 31
Full

Hourly Weather History & Observations

Time (EDT) Temp. Heat Index Dew Point Humidity Pressure Visibility Wind Dir Wind Speed Gust Speed Precip Events Conditions
12:54 AM 81.0 °F 83.3 °F 66.9 °F 62% 29.94 in 10.0 mi South 11.5 mph - N/A   Mostly Cloudy
1:54 AM 81.0 °F 83.3 °F 66.9 °F 62% 29.91 in 10.0 mi South 11.5 mph - N/A   Overcast
2:54 AM 81.0 °F 83.3 °F 66.9 °F 62% 29.89 in 10.0 mi South 13.8 mph - N/A   Overcast
3:54 AM 82.0 °F 84.5 °F 66.9 °F 60% 29.88 in 10.0 mi SSW 15.0 mph 23.0 mph N/A   Overcast
4:54 AM 82.0 °F 84.9 °F 68.0 °F 62% 29.88 in 10.0 mi SSW 19.6 mph 27.6 mph N/A   Overcast
5:54 AM 81.0 °F 83.8 °F 68.0 °F 65% 29.89 in 10.0 mi SSW 16.1 mph - N/A   Overcast
6:54 AM 81.0 °F 83.3 °F 66.9 °F 62% 29.89 in 10.0 mi SSW 13.8 mph - N/A   Overcast
7:54 AM 81.0 °F 83.0 °F 66.0 °F 60% 29.89 in 10.0 mi SSW 18.4 mph 26.5 mph N/A   Overcast
8:54 AM 82.0 °F 84.5 °F 66.9 °F 60% 29.88 in 10.0 mi SW 19.6 mph 27.6 mph N/A   Overcast
9:54 AM 82.0 °F 84.9 °F 68.0 °F 62% 29.89 in 10.0 mi SW 19.6 mph 31.1 mph N/A   Overcast
10:12 AM 82.4 °F 85.4 °F 68.0 °F 62% 29.91 in 10.0 mi SW 17.3 mph 27.6 mph N/A   Overcast
10:28 AM 82.4 °F 86.3 °F 69.8 °F 66% 29.91 in 10.0 mi SW 23.0 mph 33.4 mph N/A   Overcast
10:54 AM 84.0 °F 87.8 °F 69.1 °F 61% 29.88 in 10.0 mi SW 23.0 mph 29.9 mph N/A   Mostly Cloudy
11:54 AM 82.0 °F 85.5 °F 69.1 °F 65% 29.88 in 10.0 mi WSW 20.7 mph 27.6 mph N/A   Overcast
12:54 PM 82.9 °F 86.5 °F 69.1 °F 63% 29.88 in 10.0 mi WSW 18.4 mph 27.6 mph N/A   Overcast
1:50 PM 78.8 °F - 71.6 °F 78% 29.89 in 2.5 mi SW 25.3 mph 34.5 mph 0.00 in Rain , Thunderstorm Light Thunderstorms and Rain
1:54 PM 75.9 °F - 71.1 °F 85% 29.89 in 0.5 mi WSW 29.9 mph 41.4 mph 0.03 in Rain , Thunderstorm Light Thunderstorms and Rain
1:58 PM 71.6 °F - 69.8 °F 94% 29.92 in 0.2 mi WSW 25.3 mph 44.9 mph 0.21 in Fog , Rain , Thunderstorm Light Thunderstorms and Rain
2:00 PM 71.6 °F - 68.0 °F 88% 29.92 in 0.2 mi West 20.7 mph 44.9 mph 0.34 in Fog , Rain , Thunderstorm Light Thunderstorms and Rain
2:10 PM 71.6 °F - 69.8 °F 94% 29.92 in 1.0 mi WSW 9.2 mph 23.0 mph 0.60 in Rain , Thunderstorm Light Thunderstorms and Rain
2:20 PM 73.4 °F - 69.8 °F 88% 29.92 in 3.0 mi SW 13.8 mph 18.4 mph 0.66 in Rain , Thunderstorm Light Thunderstorms and Rain
2:33 PM 71.6 °F - 69.8 °F 94% 29.91 in 2.5 mi SSW 10.4 mph - 0.70 in Rain , Thunderstorm Light Thunderstorms and Rain
2:54 PM 72.0 °F - 69.1 °F 91% 29.93 in 10.0 mi SSW 16.1 mph - 0.75 in Rain , Thunderstorm Light Thunderstorms and Rain
3:03 PM 71.6 °F - 68.0 °F 88% 29.93 in 5.0 mi South 15.0 mph - 0.00 in Rain , Thunderstorm Light Thunderstorms and Rain
3:15 PM 71.6 °F - 69.8 °F 94% 29.92 in 5.0 mi South 11.5 mph - 0.02 in Rain , Thunderstorm Light Thunderstorms and Rain
3:54 PM 73.9 °F - 70.0 °F 87% 29.90 in 10.0 mi SSW 12.7 mph - 0.03 in Rain , Thunderstorm Light Thunderstorms and Rain
4:07 PM 75.2 °F - 69.8 °F 83% 29.91 in 10.0 mi SW 11.5 mph - 0.00 in Rain , Thunderstorm Light Thunderstorms and Rain
4:33 PM 75.2 °F - 69.8 °F 83% 29.90 in 10.0 mi SW 13.8 mph 21.9 mph 0.00 in Rain , Thunderstorm Light Thunderstorms and Rain
4:54 PM 77.0 °F - 70.0 °F 79% 29.88 in 10.0 mi SW 18.4 mph 25.3 mph 0.00 in Rain , Thunderstorm Light Thunderstorms and Rain
5:18 PM 77.0 °F - 69.8 °F 78% 29.90 in 10.0 mi WSW 17.3 mph 29.9 mph 0.00 in   Mostly Cloudy
5:47 PM 78.8 °F - 69.8 °F 74% 29.90 in 10.0 mi WSW 15.0 mph 27.6 mph 0.00 in   Mostly Cloudy
5:54 PM 77.0 °F - 69.1 °F 76% 29.89 in 10.0 mi WSW 17.3 mph 26.5 mph 0.00 in   Scattered Clouds
6:54 PM 77.0 °F - 70.0 °F 79% 29.90 in 10.0 mi WSW 17.3 mph 27.6 mph N/A   Mostly Cloudy
7:54 PM 77.0 °F - 70.0 °F 79% 29.92 in 10.0 mi WSW 12.7 mph - N/A   Partly Cloudy
8:54 PM 77.0 °F - 60.1 °F 56% 29.95 in 10.0 mi West 9.2 mph - N/A   Partly Cloudy
9:54 PM 75.9 °F - 57.0 °F 52% 29.98 in 10.0 mi West 6.9 mph - N/A   Clear
10:54 PM 73.9 °F - 57.9 °F 57% 30.00 in 10.0 mi NW 8.1 mph - N/A   Scattered Clouds
11:54 PM 71.1 °F - 60.1 °F 68% 30.03 in 10.0 mi NW 11.5 mph 18.4 mph N/A   Mostly Cloudy